Find Starlink 32682

NORAD ID: 62196 Int'l Des: 2024-229 Owner: SPXS Country: US Constellation: starlink operational
LEOCIRCULAR

实时位置

正在加载3D地球...

关于 Starlink 32682

正在加载描述...

即将过境

Passes for default location (London). Set your location on the main map for personalized predictions.

高度历史

Loading altitude history...

两行轨道根数

1 62196U 24229E 26122.17116756 .00024858 00000-0 90919-3 0 9998
2 62196 42.9985 296.0016 0003109 286.5173 73.5337 15.27599327 79118
Epoch: May 2, 2026 • Age: 10 hours

当前状态

高度 485.7 km
速度 7.62 km/s
星下点 -15.06°S, 53.67°E
发射日期 Dec 4, 2024
运行时间 1.4 years
类型 internet

技术详情

分类 Payload
质量 730.00 kg
干质量 700.00 kg
总质量 730.00 kg
长度 0.30 m
直径 4.10 m
跨度 29.00 m
形状 Box + pan
制造商 SPXS
平台类型 Starlink V2M
阶段状态 In Orbit
所有者/国家 SPXS/US

Most Searched